Terminal Aerodrome Forecast
Issued by NWS Norman, OK

Home | Current Version | Previous Version | Text Only | Print | Product List | Glossary On
Versions: 1 2 3 4 5 6 7 8 9 10 11 12 13 14 15 16 17 18 19 20 21 22 23 24 25 26
589
FTUS44 KOUN 240520
TAFOKC
TAF
KOKC 240520Z 2406/2506 06007KT P6SM FEW035 SCT250
     FM241300 08005KT P6SM BKN025
     FM241700 12007KT P6SM BKN040
     FM250100 13006KT P6SM SCT040=

USA.gov is the U.S. government's official web portal to all federal, state and local government web resources and services.